Weather History for Kendall, FL

Change the Weather History Date:

Sunday, January 19, 2014

  Actual Average Record
Temperature  
Mean Temperature 56 °F -  
Max Temperature 69 °F 74 °F 82 °F (1999)
Min Temperature 43 °F 52 °F 33 °F (1997)
Degree Days  
Heating Degree Days 9    
Growing Degree Days 6 (Base 50)    
Moisture  
Dew Point 39 °F    
Average Humidity 61    
Maximum Humidity 90    
Minimum Humidity 27    
Precipitation  
Precipitation 0.00 in - - ()
Sea Level Pressure  
Sea Level Pressure 30.22 in    
Wind  
Wind Speed 7 mph (NW)    
Max Wind Speed 12 mph    
Max Gust Speed -    
Visibility 10 miles    
Events      
Averages and records for this station are not official NWS values.
T = Trace of Precipitation, MM = Missing Value Source: NWS Daily Summary

Daily Weather History Graph

Daily Weather History Graph

Search for Another Location

Airport:

Trip Planner

Search our weather history database for the weather conditions in past years. The results will help you decide how hot, cold, wet, or windy it might be!

Date:

Astronomy

Jan. 19, 2014 Rise Set
Actual Time 7:09 AM EST 5:55 PM EST
Civil Twilight 6:44 AM EST 6:20 PM EST
Nautical Twilight 6:16 AM EST 6:48 PM EST
Astronomical Twilight 5:49 AM EST 7:16 PM EST
Moon 9:06 PM EST (1/19) 9:01 AM EST (1/19)
Length of Visible Light 11h 35m
Length of Day
10h 46m
Waning Gibbous, 89% of the Moon is Illuminated
Jan 19
Waning Gibbous
Jan 24
Last Quarter
Jan 30
New
Feb 6
First Quarter
Feb 14
Full

Hourly Weather History & Observations

Time (EST) Temp. Windchill Dew Point Humidity Pressure Visibility Wind Dir Wind Speed Gust Speed Precip Events Conditions
12:53 AM 46.9 °F - 39.9 °F 77% 30.20 in 10.0 mi NW 6.9 mph - N/A   Clear
1:53 AM 46.9 °F - 39.0 °F 74% 30.20 in 10.0 mi NNW 9.2 mph - N/A   Clear
2:53 AM 45.0 °F 40.6 °F 37.9 °F 76% 30.19 in 10.0 mi NNW 8.1 mph - N/A   Clear
3:53 AM 45.0 °F 40.1 °F 37.0 °F 74% 30.20 in 10.0 mi NNW 9.2 mph - N/A   Clear
4:53 AM 44.1 °F 40.1 °F 37.0 °F 76% 30.20 in 10.0 mi NNW 6.9 mph - N/A   Clear
5:53 AM 44.1 °F 39.0 °F 36.0 °F 73% 30.20 in 10.0 mi NNW 9.2 mph - N/A   Clear
6:53 AM 43.0 °F 40.3 °F 36.0 °F 76% 30.23 in 10.0 mi NNW 4.6 mph - N/A   Clear
7:53 AM 44.1 °F - 37.9 °F 79% 30.25 in 10.0 mi Calm Calm - N/A   Clear
8:53 AM 51.1 °F - 37.0 °F 59% 30.27 in 10.0 mi NNW 5.8 mph - N/A   Clear
9:53 AM 55.9 °F - 36.0 °F 47% 30.30 in 10.0 mi NW 9.2 mph - N/A   Clear
10:53 AM 59.0 °F - 28.9 °F 32% 30.29 in 10.0 mi NW 11.5 mph - N/A   Clear
11:53 AM 63.0 °F - 28.0 °F 27% 30.26 in 10.0 mi NW 9.2 mph - N/A   Clear
12:53 PM 64.0 °F - 32.0 °F 30% 30.23 in 10.0 mi NW 9.2 mph - N/A   Clear
1:53 PM 66.9 °F - 34.0 °F 30% 30.21 in 10.0 mi NW 11.5 mph - N/A   Clear
2:53 PM 68.0 °F - 36.0 °F 31% 30.19 in 10.0 mi WNW 8.1 mph - N/A   Clear
3:53 PM 69.1 °F - 37.0 °F 31% 30.18 in 10.0 mi NW 5.8 mph - N/A   Clear
4:53 PM 69.1 °F - 37.9 °F 32% 30.17 in 10.0 mi NNW 4.6 mph - N/A   Clear
5:53 PM 64.0 °F - 39.9 °F 41% 30.18 in 10.0 mi Calm Calm - N/A   Clear
6:53 PM 57.9 °F - 48.0 °F 70% 30.19 in 10.0 mi West 8.1 mph - N/A   Clear
7:53 PM 57.0 °F - 50.0 °F 77% 30.21 in 10.0 mi West 8.1 mph - N/A   Clear
8:53 PM 54.0 °F - 51.1 °F 90% 30.22 in 10.0 mi West 4.6 mph - N/A   Clear
9:53 PM 55.0 °F - 50.0 °F 83% 30.22 in 10.0 mi Calm Calm - N/A   Clear
10:53 PM 54.0 °F - 50.0 °F 86% 30.22 in 10.0 mi SW 3.5 mph - N/A   Clear
11:53 PM 54.0 °F - 50.0 °F 86% 30.19 in 10.0 mi South 5.8 mph - N/A   Partly Cloudy